Weather History for Heber, UT

Change the Weather History Date:

Thursday, February 7, 2013

  Actual Average (KPVU) Record (KPVU)
Temperature  
Mean Temperature 22 °F -  
Max Temperature 37 °F 37 °F 48 °F (1992)
Min Temperature 6 °F 22 °F -27 °F (1989)
Degree Days  
Heating Degree Days 44    
Moisture  
Dew Point 13 °F    
Average Humidity 66    
Maximum Humidity 93    
Minimum Humidity 36    
Precipitation  
Precipitation 0.00 in - - ()
Sea Level Pressure  
Sea Level Pressure 30.06 in    
Wind  
Wind Speed 1 mph (SE)    
Max Wind Speed 6 mph    
Max Gust Speed -    
Visibility 10 miles    
Events      
Averages and records for this station are not official NWS values.
T = Trace of Precipitation, MM = Missing Value Source: NWS Daily Summary

Daily Weather History Graph

Daily Weather History Graph

Search for Another Location

Airport:

Trip Planner

Search our weather history database for the weather conditions in past years. The results will help you decide how hot, cold, wet, or windy it might be!

Date:

Astronomy

Feb. 07, 2013 Rise Set
Actual Time 7:28 AM MST 5:51 PM MST
Civil Twilight 7:00 AM MST 6:20 PM MST
Nautical Twilight 6:27 AM MST 6:52 PM MST
Astronomical Twilight 5:56 AM MST 7:24 PM MST
Moon 5:11 AM MST (2/7) 3:19 PM MST (2/7)
Length of Visible Light 11h 19m
Length of Day
10h 23m
Waning Crescent, 8% of the Moon is Illuminated
Feb 7
Waning Crescent
Feb 10
New
Feb 17
First Quarter
Feb 25
Full
Mar 4
Last Quarter

Hourly Weather History & Observations

Time (MST) Temp. Windchill Dew Point Humidity Pressure Visibility Wind Dir Wind Speed Gust Speed Precip Events Conditions
12:15 AM 17.6 °F - 12.2 °F 79% 30.17 in 10.0 mi Calm Calm - N/A   Clear
12:35 AM 17.6 °F - 12.2 °F 79% 30.17 in 10.0 mi Calm Calm - N/A   Clear
12:55 AM 17.6 °F 10.7 °F 14.0 °F 86% 30.17 in 10.0 mi East 4.6 mph - N/A   Clear
1:15 AM 14.0 °F 8.2 °F 10.4 °F 86% 30.17 in 10.0 mi East 3.5 mph - N/A   Clear
1:35 AM 14.0 °F 8.2 °F 10.4 °F 86% 30.17 in 10.0 mi ESE 3.5 mph - N/A   Clear
1:55 AM 19.4 °F - 14.0 °F 80% 30.17 in 10.0 mi Calm Calm - N/A   Clear
2:15 AM 15.8 °F - 10.4 °F 79% 30.19 in 10.0 mi Calm Calm - N/A   Clear
2:35 AM 12.2 °F - 8.6 °F 85% 30.19 in 10.0 mi Calm Calm - N/A   Clear
2:55 AM 14.0 °F - 10.4 °F 86% 30.19 in 10.0 mi Calm Calm - N/A   Clear
3:15 AM 12.2 °F - 10.4 °F 92% 30.19 in 10.0 mi Calm Calm - N/A   Clear
3:35 AM 14.0 °F - 12.2 °F 93% 30.19 in 10.0 mi Calm Calm - N/A   Clear
3:55 AM 12.2 °F - 10.4 °F 92% 30.18 in 10.0 mi Calm Calm - N/A   Clear
4:15 AM 10.4 °F - 8.6 °F 92% 30.19 in 10.0 mi Calm Calm - N/A   Clear
4:35 AM 10.4 °F - 8.6 °F 92% 30.19 in 10.0 mi Calm Calm - N/A   Clear
4:55 AM 10.4 °F - 8.6 °F 92% 30.18 in 10.0 mi Calm Calm - N/A   Clear
5:15 AM 12.2 °F - 10.4 °F 92% 30.19 in 10.0 mi Calm Calm - N/A   Clear
5:35 AM 10.4 °F - 8.6 °F 92% 30.18 in 10.0 mi Calm Calm - N/A   Clear
5:55 AM 10.4 °F 4.0 °F 8.6 °F 92% 30.18 in 10.0 mi ESE 3.5 mph - N/A   Clear
6:15 AM 10.4 °F - 8.6 °F 92% 30.18 in 10.0 mi Calm Calm - N/A   Clear
6:35 AM 8.6 °F 2.0 °F 5.0 °F 85% 30.17 in 10.0 mi SE 3.5 mph - N/A   Clear
6:55 AM 8.6 °F - 5.0 °F 85% 30.17 in 10.0 mi Calm Calm - N/A   Clear
7:15 AM 10.4 °F - 6.8 °F 85% 30.17 in 10.0 mi Calm Calm - N/A   Clear
7:35 AM 8.6 °F - 6.8 °F 92% 30.17 in 4.0 mi Calm Calm - N/A   Clear
7:55 AM 6.8 °F - 5.0 °F 92% 30.18 in 3.0 mi Calm Calm - N/A   Clear
8:15 AM 8.6 °F 2.0 °F 6.8 °F 92% 30.18 in 5.0 mi SE 3.5 mph - N/A   Clear
8:35 AM 10.4 °F 0.8 °F 8.6 °F 92% 30.18 in 7.0 mi ESE 5.8 mph - N/A   Clear
8:55 AM 14.0 °F 5.1 °F 12.2 °F 93% 30.18 in 10.0 mi SE 5.8 mph - N/A   Clear
9:15 AM 14.0 °F - 10.4 °F 86% 30.18 in 7.0 mi Calm Calm - N/A   Clear
9:35 AM 15.8 °F - 10.4 °F 79% 30.17 in 7.0 mi Calm Calm - N/A   Clear
9:55 AM 17.6 °F - 12.2 °F 79% 30.17 in 10.0 mi Calm Calm - N/A   Clear
10:35 AM 19.4 °F - 12.2 °F 74% 30.15 in 10.0 mi Calm Calm - N/A   Clear
10:55 AM 23.0 °F - 12.2 °F 63% 30.14 in 10.0 mi Calm Calm - N/A   Clear
11:15 AM 26.6 °F - 14.0 °F 59% 30.13 in 10.0 mi Calm Calm - N/A   Clear
11:35 AM 28.4 °F - 12.2 °F 51% 30.12 in 10.0 mi Calm Calm - N/A   Clear
11:55 AM 28.4 °F - 14.0 °F 55% 30.10 in 10.0 mi Calm Calm - N/A   Clear
12:15 PM 30.2 °F - 14.0 °F 51% 30.09 in 10.0 mi Calm Calm - N/A   Clear
12:35 PM 30.2 °F - 15.8 °F 55% 30.07 in 10.0 mi Calm Calm - N/A   Clear
12:55 PM 32.0 °F - 15.8 °F 51% 30.05 in 10.0 mi Calm Calm - N/A   Clear
1:15 PM 32.0 °F - 15.8 °F 51% 30.03 in 10.0 mi Calm Calm - N/A   Clear
1:35 PM 32.0 °F - 14.0 °F 48% 30.02 in 10.0 mi Calm Calm - N/A   Clear
1:55 PM 33.8 °F - 14.0 °F 44% 30.01 in 10.0 mi Calm Calm - N/A   Clear
2:15 PM 35.6 °F - 17.6 °F 48% 29.99 in 10.0 mi Calm Calm - N/A   Clear
2:35 PM 37.4 °F - 14.0 °F 38% 29.98 in 10.0 mi Calm Calm - N/A   Clear
2:55 PM 37.4 °F - 12.2 °F 36% 29.97 in 10.0 mi Calm Calm - N/A   Clear
3:15 PM 37.4 °F - 14.0 °F 38% 29.97 in 10.0 mi Calm Calm - N/A   Clear
3:35 PM 37.4 °F 34.9 °F 15.8 °F 41% 29.96 in 10.0 mi WSW 3.5 mph - N/A   Clear
3:55 PM 37.4 °F - 14.0 °F 38% 29.96 in 10.0 mi Calm Calm - N/A   Clear
4:15 PM 37.4 °F - 17.6 °F 45% 29.95 in 10.0 mi Calm Calm - N/A   Clear
4:35 PM 37.4 °F - 17.6 °F 45% 29.95 in 10.0 mi Calm Calm - N/A   Clear
4:55 PM 37.4 °F - 15.8 °F 41% 29.95 in 10.0 mi Calm Calm - N/A   Clear
5:15 PM 35.6 °F - 17.6 °F 48% 29.94 in 10.0 mi Calm Calm - N/A   Clear
5:35 PM 37.4 °F - 14.0 °F 38% 29.93 in 10.0 mi Calm Calm - N/A   Clear
5:55 PM 33.8 °F - 15.8 °F 48% 29.94 in 10.0 mi Calm Calm - N/A   Clear
6:15 PM 33.8 °F - 14.0 °F 44% 29.94 in 10.0 mi Calm Calm - N/A   Clear
6:35 PM 33.8 °F 29.6 °F 15.8 °F 48% 29.93 in 10.0 mi SE 4.6 mph - N/A   Clear
6:55 PM 33.8 °F - 14.0 °F 44% 29.93 in 10.0 mi Calm Calm - N/A   Clear
7:15 PM 33.8 °F - 14.0 °F 44% 29.93 in 10.0 mi Calm Calm - N/A   Clear
7:35 PM 32.0 °F - 14.0 °F 48% 29.93 in 10.0 mi Calm Calm - N/A   Clear
7:55 PM 33.8 °F - 14.0 °F 44% 29.93 in 10.0 mi Calm Calm - N/A   Clear
8:15 PM 30.2 °F - 15.8 °F 55% 29.93 in 10.0 mi Calm Calm - N/A   Clear
8:35 PM 30.2 °F - 15.8 °F 55% 29.93 in 10.0 mi Calm Calm - N/A   Clear
8:55 PM 30.2 °F - 15.8 °F 55% 29.93 in 10.0 mi Calm Calm - N/A   Clear
9:15 PM 30.2 °F - 15.8 °F 55% 29.93 in 10.0 mi Calm Calm - N/A   Clear
9:35 PM 30.2 °F - 15.8 °F 55% 29.93 in 10.0 mi Calm Calm - N/A   Clear
9:55 PM 28.4 °F - 15.8 °F 59% 29.93 in 10.0 mi Calm Calm - N/A   Clear
10:15 PM 28.4 °F - 14.0 °F 55% 29.93 in 10.0 mi Calm Calm - N/A   Clear
10:55 PM 28.4 °F - 14.0 °F 55% 29.93 in 10.0 mi Calm Calm - N/A   Clear
11:15 PM 28.4 °F 24.6 °F 14.0 °F 55% 29.92 in 10.0 mi West 3.5 mph - N/A   Clear
11:35 PM 28.4 °F - 15.8 °F 59% 29.92 in 10.0 mi Calm Calm - N/A   Clear
11:55 PM 28.4 °F - 15.8 °F 59% 29.92 in 10.0 mi Calm Calm - N/A   Clear